Orbital Elements
Epoch 2015 Sept. 15.0 TT = JDT 2457280.5
T 2015 Sept. 9.15650 TT Rudenko
q 1.7516758 (2000.0) P Q
n 0.15519460 Peri. 198.96538 +0.74983999 -0.64383293
a 3.4294014 Node 203.30981 +0.64584701 +0.76227562
e 0.4892182 Incl. 22.64888 +0.14360230 -0.06644567
P 6.35
From 386 observations 2015 Aug. 18-2021 Aug. 16, mean residual 0".8.
|